Skip Page Navigation
NASA JPL Caltech
NASA Logo - Jet Propulsion Laboratory + View the NASA Portal
+ Center for Near-Earth Object Studies
JPL Home Earth Solar System Stars & Galaxies Technology
JPL Solar System Dynamics
BODIES ORBITS EPHEMERIDES TOOLS PHYSICAL DATA DISCOVERY FAQ SITE MAP
JPL Small-Body Database Browser
Search: [ help ]  
512244 (2015 YE18)
Classification: Apollo [NEO]          SPK-ID: 2512244
Ephemeris | Orbit Diagram | Orbital Elements | Mission Design | Physical Parameters | Discovery Circumstances | Close-Approach Data ]

[ hide orbit diagram ]

For accurate long-term ephemerides, please instead use our Horizons system.This orbit viewer was implemented using two-body methods, and hence should not be used for determining accurate long-term trajectories (over several years or decades) or planetary encounter circumstances.


Orbital Elements at Epoch 2459000.5 (2020-May-31.0) TDB
Reference: JPL 54 (heliocentric ecliptic J2000)
 Element Value Uncertainty (1-sigma)   Units 
e .5409155821488679 2.9312e-07  
a 1.037401878402005 1.7398e-08 au
q .4762550374238556 2.9914e-07 au
i 31.02734805508481 1.4556e-05 deg
node 256.7303968965148 1.913e-05 deg
peri 80.57339720166614 2.2822e-05 deg
M 175.4480380369814 3.349e-05 deg
tp 2458812.410311507607
(2019-Nov-24.91031151)
3.1906e-05 TDB
period 385.9392707656785
1.06
9.7085e-06
2.658e-08
d
yr
n .9327892424261032 2.3465e-08 deg/d
Q 1.598548719380155 2.6808e-08 au
  Orbit Determination Parameters
   # obs. used (total)      241  
   data-arc span      1846 days (5.05 yr)  
   first obs. used      2015-12-31  
   last obs. used      2021-01-19  
   planetary ephem.      DE431  
   SB-pert. ephem.      SB431-N16  
   condition code      1  
   norm. resid. RMS      .48892  
   source      ORB  
   producer      Otto Matic  
   solution date      2021-Jan-19 05:28:33  

Additional Information
 Earth MOID = .121895 au 
 Jupiter MOID = 4.0392 au 
 T_jup = 5.659 
[ show covariance matrix ]

Ephemeris | Orbit Diagram | Orbital Elements | Mission Design | Physical Parameters | Discovery Circumstances | Close-Approach Data ]

Physical Parameter Table
Parameter Symbol Value Units Sigma Reference Notes
absolute magnitude H 17.8   n/a MPO437934  

512244 (2015 YE18)          Discovered 2015-Dec-31 by Pan-STARRS 1 at Haleakala
Reference: Last Updated: 2018-02-05

[ show close-approach data ]
Ephemeris | Orbit Diagram | Orbital Elements | Mission Design | Physical Parameters | Discovery Circumstances | Close-Approach Data ]
ABOUT SSD CREDITS/AWARDS PRIVACY/COPYRIGHT GLOSSARY LINKS
FirstGov 2021-Jan-23 15:27 UT
(server date/time)  
NASA Home Page
Site Manager:   Ryan S. Park
Webmaster  Alan B. Chamberlin